[[{"header":{"parameterUnit":"m.s-1","parameterCategory":1,"la1":30.2992,"la2":30.254,"lo1":-89.0895,"lo2":-89.0443,"dy":0.0025,"dx":0.0025,"nx":19,"ny":19,"refTime":"2026-04-09T09:00:00:Z","depth":0,"parameterNumber":2,"parameterNumberName":"U-component_of_WINDS"},"data":[0,0,0,-9.9249,-9.9252,-9.9351,-9.9351,-9.9545,-9.9548,0,0,0,0,0,0,0,0,0,0,0,-9.9262,-9.9265,-9.9249,-9.9253,-9.9351,-9.9351,-9.9545,-9.9548,0,0,0,0,0,0,0,0,0,0,0,-9.9261,-9.9264,-9.9268,-9.9253,-9.9351,-9.9351,-9.9544,-9.9445,0,0,0,0,0,0,0,0,0,0,-9.9338,-9.9391,-9.9264,-9.9268,-9.9254,-9.9351,-9.9351,-9.944,-9.9452,-9.953,0,-9.9612,0,-9.9584,-9.9565,-9.9566,0,0,0,-9.9221,-9.9382,-9.937,-9.9268,-9.9256,-9.9351,-9.9298,-9.9446,-9.9459,-9.9547,-9.9614,-9.9619,-9.9587,-9.9567,-9.9568,-10.0128,-10.0132,0,0,-9.9215,-9.9303,-9.9361,-9.9381,-9.9372,-9.9295,-9.9301,-9.9453,-9.9532,-9.9615,-9.9623,-9.959,-9.9569,-9.9571,-10.0124,-10.0129,0,0,0,-9.9221,-9.9301,-9.9283,-9.9375,-9.9388,-9.9299,-9.9306,-9.9525,-9.9512,-9.9624,-9.9592,-9.957,-9.9573,-10.0119,-10.0126,-10.0411,0,0,0,-9.9216,-9.9303,-9.9283,-9.9337,-9.9387,-9.9458,-9.9376,-9.9502,-9.9516,-9.9591,-9.957,-9.9576,-10.0115,-10.0123,-10.0393,-10.053,0,0,0,-9.9241,-9.9305,-9.9335,-9.9342,-9.9387,-9.9453,-9.9448,-9.9503,-9.9499,-9.9566,-9.9577,-10.0111,-10.0121,-10.0377,-10.0504,-10.07,0,0,0,-9.9293,-9.9588,-9.9341,-9.9658,-9.9387,-9.9631,-9.9446,-9.9624,-9.9716,-9.9572,-10.0115,-10.0125,-10.0372,-10.0488,-10.0684,-10.0879,-10.0969,0,0,-9.9714,-9.9642,-9.9822,-9.9603,-9.9913,-9.9609,-9.996,-9.9962,-9.9889,-10.0052,-10.0065,-10.0399,-10.0502,-10.0697,-10.1452,-10.1525,0,0,0,-9.9984,-10.0114,-10.0177,-10.027,-10.028,-10.0298,-10.0237,-10.0238,-10.0372,-9.9991,-10.0522,-10.0581,-10.0692,-10.078,-10.0842,-10.093,-10.0171,-10.017,-10.0169,-10.0703,-10.0593,-10.0882,-10.0786,-10.0878,-10.0813,-10.0877,-10.0866,-10.073,-10.0858,-10.0904,-10.1375,-10.1483,-10.1528,-10.1622,-10.1001,-10.1002,-10.1003,-10.1004,-10.1305,-10.147,-10.1283,-10.1495,-10.1378,-10.1555,-10.1505,-10.1402,-10.1548,-10.1331,-10.1423,-10.1192,-10.1611,-10.1687,-10.1024,-10.1021,-10.1018,-10.1016,-10.1015,-10.176,-10.1819,-10.1817,-10.1938,-10.2044,-10.1936,-10.2086,-10.1975,-10.1871,-10.1963,-10.1997,-10.1992,-10.197,-10.1988,-10.199,-10.1991,-10.1993,-10.1994,-10.1995,-10.2231,-10.2218,-10.2358,-10.2394,-10.2437,-10.2481,-10.242,-10.246,-10.2476,-10.2383,-10.2382,-10.2232,-10.1674,-10.1534,-10.202,-10.2015,-10.2012,-10.201,-10.2008,-10.2876,-10.2712,-10.2928,-10.2973,-10.3004,-10.3116,-10.2973,-10.3065,-10.3082,-10.3159,-10.299,-10.2597,-10.2515,-10.2465,-10.2348,-10.3015,-10.3015,-10.3015,-10.3015,-10.3256,-10.3205,-10.3399,-10.3477,-10.3541,-10.3434,-10.368,-10.3636,-10.3565,-10.3569,-10.3457,-10.3294,-10.3248,-10.3193,-10.3127,-10.3015,-10.3837,-10.3838,-10.3839,-10.3645,-10.3594,-10.3825,-10.3753,-10.3769,-10.3786,-10.4013,-10.411,-10.3995,-10.387,-10.3568,-10.3534,-10.3269,-10.3189,-10.3053,-10.2953,-10.2747,0,0]},{"header":{"parameterUnit":"m.s-1","parameterCategory":1,"la1":30.2992,"la2":30.254,"lo1":-89.0895,"lo2":-89.0443,"dy":0.0025,"dx":0.0025,"nx":19,"ny":19,"refTime":"2026-04-09T09:00:00:Z","depth":0,"parameterNumber":3,"parameterNumberName":"V-component_of_WINDS"},"data":[0,0,0,2.229,2.2289,2.2214,2.2213,2.2132,2.2131,0,0,0,0,0,0,0,0,0,0,0,2.2325,2.2325,2.2291,2.2289,2.2214,2.2213,2.2132,2.2131,0,0,0,0,0,0,0,0,0,0,0,2.2325,2.2325,2.2325,2.2289,2.2214,2.2213,2.2132,2.2183,0,0,0,0,0,0,0,0,0,0,2.2253,2.2297,2.2325,2.2325,2.2289,2.2214,2.2213,2.2185,2.218,2.2174,0,2.2174,0,2.2152,2.2127,2.2127,0,0,0,2.2279,2.2302,2.2271,2.2325,2.2288,2.2214,2.2245,2.2182,2.2176,2.2167,2.2172,2.2169,2.215,2.2127,2.2126,2.2131,2.2132,0,0,2.2283,2.2317,2.2276,2.2268,2.2284,2.2247,2.2243,2.2178,2.2185,2.2172,2.2167,2.2149,2.2126,2.2126,2.2131,2.2131,0,0,0,2.2302,2.232,2.229,2.2272,2.2257,2.2245,2.224,2.2188,2.2176,2.2166,2.2148,2.2126,2.2125,2.213,2.2131,2.2188,0,0,0,2.2304,2.2331,2.2293,2.2312,2.2259,2.2222,2.2252,2.218,2.2172,2.2149,2.2126,2.2125,2.213,2.2131,2.2185,2.2207,0,0,0,2.2325,2.2333,2.2327,2.2314,2.2283,2.2222,2.2206,2.2178,2.2162,2.2127,2.2124,2.2129,2.213,2.2182,2.2203,2.2218,0,0,0,2.2357,2.2376,2.2328,2.2343,2.2284,2.226,2.2206,2.2185,2.2162,2.2126,2.213,2.2131,2.2182,2.2201,2.2216,2.2236,2.2248,0,0,2.2399,2.2382,2.2388,2.2343,2.2336,2.2269,2.2268,2.2214,2.2179,2.2149,2.2148,2.2186,2.2203,2.2218,2.2307,2.2317,0,0,0,2.2413,2.2417,2.2408,2.239,2.2352,2.232,2.2264,2.2244,2.2217,2.2171,2.2195,2.2204,2.2212,2.2219,2.2228,2.2231,2.2137,2.2136,2.2136,2.2517,2.2475,2.2482,2.2431,2.2414,2.2358,2.2339,2.2302,2.2261,2.2268,2.2258,2.2318,2.2328,2.2334,2.2339,2.2266,2.2267,2.2267,2.2267,2.2574,2.2573,2.2524,2.2512,2.2467,2.2456,2.2403,2.2375,2.2357,2.2321,2.2325,2.2288,2.2347,2.2348,2.2271,2.227,2.227,2.2269,2.2269,2.2636,2.2628,2.2607,2.2578,2.256,2.2507,2.2494,2.2452,2.2413,2.2417,2.2401,2.24,2.2393,2.2413,2.2414,2.2414,2.2414,2.2414,2.2414,2.2707,2.2682,2.2677,2.2641,2.2625,2.2598,2.2544,2.2526,2.2495,2.2466,2.2465,2.2424,2.2362,2.2346,2.2417,2.2417,2.2416,2.2416,2.2416,2.2776,2.2755,2.2748,2.2732,2.2687,2.2672,2.2622,2.259,2.2569,2.2563,2.2522,2.2484,2.2462,2.2455,2.2441,2.2533,2.2533,2.2533,2.2533,2.2827,2.2814,2.2798,2.2776,2.275,2.2705,2.2696,2.2655,2.2607,2.2592,2.2573,2.2553,2.2548,2.2528,2.252,2.2506,2.2612,2.2612,2.2612,2.2867,2.285,2.2851,2.2809,2.2771,2.274,2.273,2.2705,2.2647,2.2615,2.2578,2.2575,2.2541,2.2533,2.2496,2.2483,2.2458,0,0]}]]